Torna al catalogo

SITRO-AIS-18

AttivoNavigazioneSSO
NORAD 61790·PAYLOAD·🇷🇺 Russia
Questo nome del satellite non è ancora stato confermato da fonti ufficiali.

Lanciato Nov 4, 2024 da Vostochny Cosmodrome

Loading…

Prossimi Passaggi (prossime 24 ore)

TLE

AggiornatoSource: Space-Track

Epoca: Sep 14, 2026, 14:38 UTC

1 61790U 24199BH  26257.60982979  .00002047  00000-0  17663-3 0  9999
2 61790  97.3182  91.6506 0007164 123.7494 236.4413 14.98276991145425

Traccia SITRO-AIS-18 in tempo reale con AllMySat

Download on the App Store